• In Netherlands
  • List of Countries
  • For 7 days
  • Water Temperature
  • Satellite Maps
  • Weather Map
  • Weather Widgets
  • user-avatar
    Login

    Hourly Weather Sofia

    Today, 28 July, Friday

    Time Temperature Precipitation Wind Pressure Humidity
    00:00 +14°C° 0 mm 2 mps 706 mmHg 85%
    01:00 +14°C° 0 mm 2 mps 706 mmHg 87%
    02:00 +13°C° 0 mm 2 mps 706 mmHg 89%
    03:00 +13°C° 0 mm 2 mps 706 mmHg 90%
    04:00 +13°C° 0 mm 2 mps 706 mmHg 90%
    05:00 +13°C° 0 mm 2 mps 706 mmHg 91%
    06:00 +14°C° 0 mm 2 mps 707 mmHg 83%
    07:00 +16°C° 0 mm 3 mps 707 mmHg 75%
    08:00 +17°C° 0 mm 5 mps 707 mmHg 68%
    09:00 +19°C° 0 mm 5 mps 707 mmHg 62%
    10:00 +21°C° 0 mm 4 mps 707 mmHg 55%
    11:00 +23°C° 0 mm 4 mps 708 mmHg 49%
    12:00 +25°C° 0 mm 4 mps 708 mmHg 46%
    13:00 +26°C° 0 mm 4 mps 708 mmHg 43%
    14:00 +27°C° 0 mm 5 mps 708 mmHg 40%
    15:00 +27°C° 0 mm 5 mps 708 mmHg 40%
    16:00 +27°C° 0 mm 5 mps 708 mmHg 40%
    17:00 +27°C° 0 mm 5 mps 708 mmHg 40%
    18:00 +25°C° 0 mm 4 mps 708 mmHg 47%
    19:00 +22°C° 0 mm 3 mps 708 mmHg 53%
    20:00 +20°C° 0 mm 2 mps 708 mmHg 60%
    21:00 +19°C° 0 mm 2 mps 709 mmHg 64%
    22:00 +18°C° 0 mm 2 mps 710 mmHg 67%
    23:00 +17°C° 0 mm 2 mps 710 mmHg 71%

    Tomorrow, 29 July, Saturday

    Time Temperature Precipitation Wind Pressure Humidity
    00:00 +17°C° 0 mm 2 mps 710 mmHg 73%
    01:00 +16°C° 0 mm 2 mps 711 mmHg 75%
    02:00 +16°C° 0 mm 1 mps 711 mmHg 77%
    03:00 +16°C° 0 mm 1 mps 711 mmHg 79%
    04:00 +16°C° 0 mm 1 mps 711 mmHg 80%
    05:00 +15°C° 0 mm 1 mps 711 mmHg 81%
    06:00 +19°C° 0 mm 1 mps 712 mmHg 73%
    07:00 +21°C° 0 mm 1 mps 712 mmHg 64%
    08:00 +23°C° 0 mm 1 mps 713 mmHg 56%
    09:00 +25°C° 0 mm 2 mps 713 mmHg 50%
    10:00 +27°C° 0 mm 2 mps 713 mmHg 44%
    11:00 +29°C° 0 mm 3 mps 714 mmHg 38%
    12:00 +30°C° 0 mm 3 mps 714 mmHg 36%
    13:00 +31°C° 0 mm 3 mps 713 mmHg 34%
    14:00 +31°C° 0 mm 3 mps 713 mmHg 32%
    15:00 +31°C° 0 mm 3 mps 713 mmHg 33%
    16:00 +31°C° 0 mm 3 mps 713 mmHg 34%
    17:00 +31°C° 0 mm 3 mps 713 mmHg 35%
    18:00 +28°C° 0 mm 2 mps 713 mmHg 42%
    19:00 +26°C° 0 mm 2 mps 713 mmHg 49%
    20:00 +23°C° 0 mm 1 mps 713 mmHg 55%
    21:00 +22°C° 0 mm 1 mps 713 mmHg 58%
    22:00 +21°C° 0 mm 1 mps 713 mmHg 61%
    23:00 +20°C° 0 mm 1 mps 714 mmHg 63%

    Day after tomorrow, 30 July, Sunday

    Time Temperature Precipitation Wind Pressure Humidity
    00:00 +20°C° 0 mm 1 mps 714 mmHg 64%
    01:00 +20°C° 0 mm 1 mps 714 mmHg 65%
    02:00 +19°C° 0 mm 1 mps 714 mmHg 66%
    03:00 +19°C° 0 mm 1 mps 714 mmHg 67%
    04:00 +19°C° 0 mm 1 mps 714 mmHg 69%
    05:00 +18°C° 0 mm 1 mps 713 mmHg 70%
    06:00 +21°C° 0 mm 1 mps 714 mmHg 63%
    07:00 +21°C° 0 mm 0 mps 714 mmHg 57%
    08:00 +23°C° 0 mm 0 mps 715 mmHg 50%
    09:00 +27°C° 0 mm 1 mps 715 mmHg 45%
    10:00 +29°C° 0 mm 1 mps 715 mmHg 40%
    11:00 +31°C° 0 mm 2 mps 715 mmHg 35%
    12:00 +31°C° 0 mm 2 mps 715 mmHg 33%
    13:00 +32°C° 0 mm 2 mps 715 mmHg 31%
    14:00 +34°C° 0 mm 2 mps 714 mmHg 30%
    15:00 +32°C° 0 mm 2 mps 714 mmHg 31%
    16:00 +32°C° 0 mm 2 mps 714 mmHg 32%
    17:00 +32°C° 0 mm 2 mps 713 mmHg 33%
    18:00 +29°C° 0 mm 2 mps 713 mmHg 41%
    19:00 +27°C° 0 mm 2 mps 713 mmHg 48%
    20:00 +24°C° 0 mm 2 mps 713 mmHg 55%
    21:00 +23°C° 0 mm 1 mps 713 mmHg 58%
    22:00 +22°C° 0 mm 1 mps 713 mmHg 61%
    23:00 +21°C° 0 mm 1 mps 714 mmHg 64%

    31 July, Monday

    Time Temperature Precipitation Wind Pressure Humidity
    00:00 +21°C° 0 mm 1 mps 714 mmHg 65%
    01:00 +20°C° 0 mm 1 mps 714 mmHg 66%
    02:00 +20°C° 0 mm 1 mps 713 mmHg 67%
    03:00 +19°C° 0 mm 1 mps 713 mmHg 69%
    04:00 +19°C° 0 mm 1 mps 713 mmHg 71%
    05:00 +19°C° 0 mm 1 mps 713 mmHg 73%
    06:00 +21°C° 0 mm 1 mps 714 mmHg 67%
    07:00 +23°C° 0 mm 1 mps 714 mmHg 60%
    08:00 +25°C° 0 mm 1 mps 715 mmHg 54%
    09:00 +27°C° 0 mm 2 mps 715 mmHg 49%
    10:00 +29°C° 0 mm 2 mps 715 mmHg 43%
    11:00 +31°C° 0 mm 3 mps 715 mmHg 37%
    12:00 +31°C° 0 mm 3 mps 715 mmHg 35%
    13:00 +33°C° 0 mm 3 mps 714 mmHg 32%
    14:00 +34°C° 0 mm 4 mps 714 mmHg 30%
    15:00 +34°C° 0 mm 4 mps 714 mmHg 32%
    16:00 +33°C° 0 mm 4 mps 714 mmHg 33%
    17:00 +33°C° 0 mm 4 mps 713 mmHg 34%
    18:00 +29°C° 0 mm 3 mps 713 mmHg 42%
    19:00 +27°C° 0 mm 3 mps 713 mmHg 50%
    20:00 +24°C° 0 mm 2 mps 713 mmHg 58%
    21:00 +23°C° 0 mm 2 mps 714 mmHg 60%
    22:00 +21°C° 0 mm 2 mps 714 mmHg 63%
    23:00 +21°C° 0 mm 1 mps 714 mmHg 66%

    1 August, Tuesday

    Time Temperature Precipitation Wind Pressure Humidity
    00:00 +20°C° 0 mm 1 mps 714 mmHg 67%
    01:00 +20°C° 0 mm 1 mps 714 mmHg 68%
    02:00 +19°C° 0 mm 1 mps 714 mmHg 69%
    03:00 +19°C° 0 mm 1 mps 714 mmHg 70%
    04:00 +18°C° 0 mm 1 mps 714 mmHg 71%
    05:00 +18°C° 0 mm 1 mps 714 mmHg 72%
    06:00 +20°C° 0 mm 1 mps 715 mmHg 65%
    07:00 +21°C° 0 mm 2 mps 715 mmHg 57%
    08:00 +25°C° 0 mm 2 mps 716 mmHg 50%
    09:00 +26°C° 0 mm 2 mps 716 mmHg 44%
    10:00 +28°C° 0 mm 3 mps 716 mmHg 39%
    11:00 +30°C° 0 mm 4 mps 716 mmHg 34%
    12:00 +30°C° 0 mm 4 mps 716 mmHg 32%
    13:00 +32°C° 0 mm 4 mps 715 mmHg 31%
    14:00 +33°C° 0 mm 4 mps 715 mmHg 29%
    15:00 +32°C° 0 mm 4 mps 715 mmHg 31%
    16:00 +32°C° 0 mm 4 mps 715 mmHg 33%
    17:00 +32°C° 0 mm 4 mps 714 mmHg 36%
    18:00 +28°C° 0 mm 3 mps 714 mmHg 44%
    19:00 +26°C° 0 mm 3 mps 714 mmHg 52%
    20:00 +24°C° 0 mm 2 mps 714 mmHg 61%
    21:00 +23°C° 0 mm 2 mps 714 mmHg 64%
    22:00 +22°C° 0 mm 1 mps 715 mmHg 68%
    23:00 +21°C° 0 mm 1 mps 715 mmHg 71%

    2 August, Wednesday

    Time Temperature Precipitation Wind Pressure Humidity
    00:00 +20°C° 0 mm 1 mps 715 mmHg 73%
    01:00 +20°C° 0 mm 1 mps 714 mmHg 75%
    02:00 +19°C° 0 mm 1 mps 714 mmHg 77%
    03:00 +19°C° 0 mm 1 mps 714 mmHg 78%
    04:00 +19°C° 0 mm 1 mps 714 mmHg 80%
    05:00 +18°C° 0 mm 1 mps 714 mmHg 82%
    06:00 +20°C° 0 mm 1 mps 714 mmHg 72%
    07:00 +21°C° 0 mm 2 mps 715 mmHg 62%
    08:00 +24°C° 0 mm 2 mps 715 mmHg 51%
    09:00 +26°C° 0 mm 2 mps 715 mmHg 44%
    10:00 +28°C° 0 mm 3 mps 715 mmHg 36%
    11:00 +30°C° 0 mm 3 mps 715 mmHg 28%
    12:00 +31°C° 0 mm 3 mps 715 mmHg 26%
    13:00 +33°C° 0 mm 4 mps 715 mmHg 25%
    14:00 +34°C° 0 mm 4 mps 714 mmHg 23%
    15:00 +33°C° 0 mm 4 mps 714 mmHg 25%
    16:00 +33°C° 0 mm 4 mps 714 mmHg 27%
    17:00 +33°C° 0 mm 4 mps 713 mmHg 29%
    18:00 +29°C° 0 mm 3 mps 713 mmHg 37%
    19:00 +26°C° 0 mm 2 mps 713 mmHg 46%
    20:00 +23°C° 0 mm 2 mps 713 mmHg 54%
    21:00 +22°C° 0 mm 1 mps 713 mmHg 57%
    22:00 +21°C° 0 mm 1 mps 713 mmHg 60%
    23:00 +20°C° 0 mm 1 mps 713 mmHg 62%
    Show more